Location: College Rock
(37.2713°N, 119.1740°W)
Time: 12:42:00
(UTC+00:00)

Cosmos 1697 Rocket - Pass Details

Date: 29 October 2020
Orbit: 831 x 845 km, 71.0° (Epoch: 01 December)

Event Time Altitude Azimuth Distance (km) Brightness Sun altitude
Exits shadow 12:31:55 25° 328° (NNW) 1,634 3.9 -21.8°
Maximum altitude 12:35:14 68° 251° (WSW) 906 2.6 -21.1°
Drops below altitude 10° 12:40:50 10° 169° (S) 2,455 5.3 -20.0°
Sets 12:43:16 0° 167° (SSE) 3,387 6.0 -19.5°
